• In Kazakhstan
  • List of Countries
  • For 7 days
  • Water Temperature
  • Satellite Maps
  • Weather Map
  • News
  • Weather Widgets
  • user-avatar
    Login

    Hourly Weather Yelsk

    Today, 23 October, Monday

    Time Temperature Precipitation Wind Pressure Humidity
    00:00 +1°C° 0 mm 2 mps 749 mmHg 79%
    01:00 +1°C° 0 mm 2 mps 749 mmHg 81%
    02:00 +1°C° 0 mm 1 mps 749 mmHg 83%
    03:00 -1°C° 0 mm 2 mps 749 mmHg 83%
    04:00 -1°C° 0 mm 2 mps 749 mmHg 82%
    05:00 -1°C° 0 mm 2 mps 748 mmHg 81%
    06:00 0°C° 0 mm 3 mps 748 mmHg 78%
    07:00 0°C° 0 mm 3 mps 748 mmHg 76%
    08:00 +1°C° 0 mm 3 mps 748 mmHg 73%
    09:00 +2°C° 0 mm 3 mps 748 mmHg 68%
    10:00 +3°C° 0 mm 3 mps 748 mmHg 64%
    11:00 +4°C° 0 mm 4 mps 748 mmHg 60%
    12:00 +4°C° 0 mm 4 mps 748 mmHg 58%
    13:00 +5°C° 0 mm 4 mps 748 mmHg 57%
    14:00 +5°C° 0 mm 4 mps 748 mmHg 55%
    15:00 +5°C° 0 mm 4 mps 748 mmHg 58%
    16:00 +4°C° 0 mm 3 mps 748 mmHg 60%
    17:00 +4°C° 0 mm 3 mps 748 mmHg 63%
    18:00 +4°C° 0 mm 3 mps 749 mmHg 63%
    19:00 +3°C° 0 mm 3 mps 749 mmHg 64%
    20:00 +3°C° 0 mm 3 mps 749 mmHg 64%
    21:00 +3°C° 0 mm 3 mps 750 mmHg 64%
    22:00 +3°C° 0 mm 3 mps 750 mmHg 64%
    23:00 +2°C° 0 mm 3 mps 750 mmHg 64%

    Tomorrow, 24 October, Tuesday

    Time Temperature Precipitation Wind Pressure Humidity
    00:00 +2°C° 0 mm 3 mps 750 mmHg 64%
    01:00 +2°C° 0 mm 3 mps 751 mmHg 64%
    02:00 +1°C° 0 mm 4 mps 751 mmHg 63%
    03:00 +2°C° 0 mm 3 mps 751 mmHg 63%
    04:00 +2°C° 0 mm 3 mps 751 mmHg 64%
    05:00 +2°C° 0 mm 3 mps 752 mmHg 64%
    06:00 +2°C° 0 mm 3 mps 752 mmHg 64%
    07:00 +1°C° 0 mm 4 mps 753 mmHg 63%
    08:00 +1°C° 0 mm 4 mps 753 mmHg 63%
    09:00 +1°C° 0 mm 4 mps 754 mmHg 60%
    10:00 +3°C° 0 mm 4 mps 754 mmHg 57%
    11:00 +4°C° 0 mm 4 mps 755 mmHg 54%
    12:00 +4°C° 0 mm 4 mps 755 mmHg 52%
    13:00 +5°C° 0 mm 4 mps 755 mmHg 50%
    14:00 +5°C° 0 mm 4 mps 755 mmHg 49%
    15:00 +4°C° 0 mm 3 mps 755 mmHg 53%
    16:00 +3°C° 0 mm 3 mps 755 mmHg 58%
    17:00 +3°C° 0 mm 2 mps 755 mmHg 63%
    18:00 +2°C° 0 mm 2 mps 756 mmHg 66%
    19:00 +2°C° 0 mm 2 mps 756 mmHg 68%
    20:00 +1°C° 0 mm 2 mps 756 mmHg 71%
    21:00 -1°C° 0 mm 2 mps 757 mmHg 74%
    22:00 -1°C° 0 mm 2 mps 757 mmHg 77%
    23:00 -2°C° 0 mm 2 mps 757 mmHg 79%

    Day after tomorrow, 25 October, Wednesday

    Time Temperature Precipitation Wind Pressure Humidity
    00:00 -2°C° 0 mm 2 mps 757 mmHg 80%
    01:00 -2°C° 0 mm 2 mps 757 mmHg 81%
    02:00 -3°C° 0 mm 2 mps 757 mmHg 82%
    03:00 -3°C° 0 mm 2 mps 757 mmHg 82%
    04:00 -3°C° 0 mm 2 mps 757 mmHg 83%
    05:00 -3°C° 0 mm 2 mps 758 mmHg 83%
    06:00 -2°C° 0 mm 2 mps 758 mmHg 80%
    07:00 -2°C° 0 mm 2 mps 758 mmHg 77%
    08:00 -2°C° 0 mm 2 mps 759 mmHg 75%
    09:00 +1°C° 0 mm 2 mps 758 mmHg 67%
    10:00 +3°C° 0 mm 2 mps 758 mmHg 59%
    11:00 +4°C° 0 mm 2 mps 758 mmHg 51%
    12:00 +5°C° 0 mm 2 mps 758 mmHg 49%
    13:00 +5°C° 0 mm 2 mps 758 mmHg 46%
    14:00 +6°C° 0 mm 2 mps 757 mmHg 44%
    15:00 +5°C° 0 mm 2 mps 757 mmHg 50%
    16:00 +3°C° 0 mm 2 mps 757 mmHg 56%
    17:00 +2°C° 0 mm 2 mps 757 mmHg 62%
    18:00 +1°C° 0 mm 2 mps 756 mmHg 64%
    19:00 +1°C° 0 mm 2 mps 756 mmHg 66%
    20:00 +1°C° 0 mm 2 mps 756 mmHg 69%
    21:00 0°C° 0 mm 3 mps 756 mmHg 68%
    22:00 0°C° 0 mm 3 mps 755 mmHg 67%
    23:00 +1°C° 0 mm 3 mps 755 mmHg 65%

    26 October, Thursday

    Time Temperature Precipitation Wind Pressure Humidity
    00:00 0°C° 0.3 mm 4 mps 754 mmHg 66%
    01:00 0°C° 0.3 mm 4 mps 754 mmHg 66%
    02:00 +1°C° 0.3 mm 4 mps 753 mmHg 67%
    03:00 +1°C° 0.5 mm 4 mps 752 mmHg 69%
    04:00 +1°C° 0.5 mm 4 mps 751 mmHg 72%
    05:00 +1°C° 0.5 mm 4 mps 751 mmHg 75%
    06:00 +1°C° 0.2 mm 4 mps 750 mmHg 78%
    07:00 +2°C° 0.2 mm 3 mps 750 mmHg 82%
    08:00 +3°C° 0.2 mm 3 mps 750 mmHg 85%
    09:00 +4°C° 0 mm 3 mps 750 mmHg 86%
    10:00 +5°C° 0 mm 3 mps 749 mmHg 86%
    11:00 +7°C° 0 mm 3 mps 749 mmHg 87%
    12:00 +8°C° 0 mm 3 mps 749 mmHg 87%
    13:00 +9°C° 0 mm 3 mps 749 mmHg 87%
    14:00 +9°C° 0 mm 3 mps 748 mmHg 87%
    15:00 +9°C° 0.1 mm 3 mps 748 mmHg 89%
    16:00 +9°C° 0.1 mm 3 mps 748 mmHg 91%
    17:00 +8°C° 0.1 mm 3 mps 748 mmHg 94%
    18:00 +8°C° 0 mm 3 mps 748 mmHg 94%
    19:00 +8°C° 0 mm 3 mps 747 mmHg 94%
    20:00 +8°C° 0 mm 3 mps 747 mmHg 94%
    21:00 +8°C° 0 mm 3 mps 746 mmHg 94%
    22:00 +8°C° 0 mm 3 mps 746 mmHg 94%
    23:00 +8°C° 0 mm 3 mps 746 mmHg 95%

    27 October, Friday

    Time Temperature Precipitation Wind Pressure Humidity
    00:00 +8°C° 0 mm 3 mps 745 mmHg 95%
    01:00 +8°C° 0 mm 3 mps 745 mmHg 96%
    02:00 +8°C° 0 mm 3 mps 744 mmHg 96%
    03:00 +8°C° 0 mm 3 mps 744 mmHg 96%
    04:00 +7°C° 0 mm 3 mps 743 mmHg 96%
    05:00 +7°C° 0 mm 3 mps 743 mmHg 96%
    06:00 +7°C° 0 mm 3 mps 743 mmHg 95%
    07:00 +8°C° 0 mm 3 mps 742 mmHg 95%
    08:00 +7°C° 0 mm 4 mps 742 mmHg 94%
    09:00 +8°C° 0.1 mm 3 mps 742 mmHg 92%
    10:00 +8°C° 0.1 mm 3 mps 742 mmHg 90%
    11:00 +9°C° 0.1 mm 3 mps 741 mmHg 88%
    12:00 +9°C° 0.1 mm 3 mps 741 mmHg 86%
    13:00 +9°C° 0.1 mm 3 mps 740 mmHg 83%
    14:00 +10°C° 0.1 mm 3 mps 740 mmHg 80%
    15:00 +9°C° 0.1 mm 3 mps 740 mmHg 84%
    16:00 +8°C° 0.1 mm 2 mps 739 mmHg 88%
    17:00 +8°C° 0.1 mm 2 mps 739 mmHg 92%
    18:00 +7°C° 0.1 mm 2 mps 739 mmHg 93%
    19:00 +7°C° 0.1 mm 2 mps 739 mmHg 94%
    20:00 +7°C° 0.1 mm 2 mps 739 mmHg 95%
    21:00 +6°C° 0 mm 2 mps 739 mmHg 95%
    22:00 +6°C° 0 mm 2 mps 738 mmHg 95%
    23:00 +6°C° 0 mm 2 mps 738 mmHg 95%

    28 October, Saturday

    Time Temperature Precipitation Wind Pressure Humidity
    00:00 +5°C° 0 mm 2 mps 738 mmHg 96%
    01:00 +5°C° 0 mm 2 mps 738 mmHg 96%
    02:00 +5°C° 0 mm 2 mps 738 mmHg 96%
    03:00 +4°C° 0 mm 2 mps 737 mmHg 96%
    04:00 +4°C° 0 mm 2 mps 737 mmHg 96%
    05:00 +3°C° 0 mm 3 mps 737 mmHg 96%
    06:00 +3°C° 0.1 mm 3 mps 737 mmHg 95%
    07:00 +4°C° 0.1 mm 3 mps 737 mmHg 94%
    08:00 +5°C° 0.1 mm 3 mps 737 mmHg 93%
    09:00 +5°C° 0.3 mm 4 mps 737 mmHg 89%
    10:00 +6°C° 0.3 mm 4 mps 737 mmHg 85%
    11:00 +6°C° 0.3 mm 4 mps 737 mmHg 82%
    12:00 +7°C° 0.1 mm 4 mps 736 mmHg 77%
    13:00 +7°C° 0.1 mm 5 mps 736 mmHg 72%
    14:00 +7°C° 0.1 mm 5 mps 736 mmHg 67%
    15:00 +6°C° 0 mm 4 mps 735 mmHg 72%
    16:00 +5°C° 0 mm 3 mps 735 mmHg 77%
    17:00 +5°C° 0 mm 2 mps 735 mmHg 82%
    18:00 +5°C° 0 mm 2 mps 735 mmHg 84%
    19:00 +5°C° 0 mm 2 mps 735 mmHg 85%
    20:00 +4°C° 0 mm 2 mps 734 mmHg 86%
    21:00 +3°C° 0 mm 3 mps 734 mmHg 87%
    22:00 +3°C° 0 mm 3 mps 734 mmHg 88%
    23:00 +3°C° 0 mm 3 mps 733 mmHg 90%

    29 October, Sunday

    Time Temperature Precipitation Wind Pressure Humidity
    00:00 +3°C° 0.1 mm 3 mps 733 mmHg 90%
    01:00 +3°C° 0.1 mm 3 mps 732 mmHg 90%
    02:00 +3°C° 0.1 mm 3 mps 732 mmHg 90%
    03:00 +3°C° 0.3 mm 3 mps 731 mmHg 90%
    04:00 +3°C° 0.3 mm 3 mps 731 mmHg 90%
    05:00 +4°C° 0.3 mm 3 mps 730 mmHg 90%
    06:00 +4°C° 0.3 mm 3 mps 730 mmHg 90%
    07:00 +4°C° 0.3 mm 4 mps 730 mmHg 90%
    08:00 +4°C° 0.3 mm 4 mps 730 mmHg 90%
    09:00 +5°C° 0.3 mm 3 mps 730 mmHg 89%
    10:00 +5°C° 0.3 mm 3 mps 730 mmHg 88%
    11:00 +5°C° 0.3 mm 3 mps 730 mmHg 87%
    12:00 +5°C° 0.4 mm 3 mps 731 mmHg 88%
    13:00 +7°C° 0.4 mm 2 mps 731 mmHg 88%
    14:00 +7°C° 0.4 mm 2 mps 731 mmHg 89%
    15:00 +6°C° 0.7 mm 2 mps 731 mmHg 91%
    16:00 +6°C° 0.7 mm 2 mps 732 mmHg 93%
    17:00 +6°C° 0.7 mm 2 mps 732 mmHg 95%
    18:00 +5°C° 0.6 mm 3 mps 732 mmHg 94%
    19:00 +4°C° 0.6 mm 3 mps 733 mmHg 94%
    20:00 +4°C° 0.6 mm 3 mps 733 mmHg 94%
    21:00 +4°C° 0.5 mm 4 mps 734 mmHg 93%
    22:00 +4°C° 0.5 mm 4 mps 734 mmHg 93%
    23:00 +4°C° 0.5 mm 4 mps 734 mmHg 92%
    Show more